7 * 24
多渠道服务支持
INTELSAT 3-F3是国际通信卫星组织(ITSO)于1969年2月6日发射的第三代国际通信卫星,属于国际通信卫星系列组网卫星,旨在推动全球跨洋通信覆盖。作为冷战时期早期商用通信卫星,它承担着洲际电话、电视转播服务,支撑了全球商业通信网络的早期搭建,是国际卫星通信产业化发展的标志性成果,为后续全球通信卫星系统的演进积累了关键技术与运营经验。
(ITSO)
| 数据来源 | 国际轨道数据 |
| 星历时间: | 2026-06-11T17:33:23+0800 1天前 查看轨道信息 |
| 半长轴: | 47100.448km |
| 偏心率: | 0.017989 |
| 轨道倾角: | 9.511° |
| 近地点辐角 | 1.478° |
| 升交点赤经 | 303.369° |
| 平近点角 | 340.126° |
| 近地点: | 39875.021km |
| 远地点: | 41569.601km |
| 周期: | 1695.498分钟 |
| 每日圈数: | 0.849308 |